Location: Dallas
(32.7830°N, 96.8000°W)
Time: 06:31:42
(UTC-06:00)

Amateur Radio Satellites - All Passes

Search period start: 12 December 2017 06:01
Search period end: 13 December 2017 06:01
Location: Dallas, 32.7830°N, 96.8000°W

Satellite Date Start Highest point End Downlink Frequencies (MHz)
Time Altitude Azimuth
JUGNU 12 Dec 06:10:11 06:14:39 22° 176° (S) 06:19:07 437.505
NO-84 12 Dec 06:24:10 06:26:07 16° 122° (ESE) 06:28:07 435.350 FM
DOVE 4 12 Dec 06:26:26 06:29:27 18° 292° (WNW) 06:32:21 437.250
BEESAT 2 12 Dec 06:27:27 06:30:29 20° 54° (NE) 06:33:29 435.950
LilacSat-2 12 Dec 06:31:03 06:34:56 83° 285° (WNW) 06:38:48 437.200
HO-68 12 Dec 06:33:55 06:39:53 28° 97° (E) 06:45:47 435.675
FO-29 12 Dec 06:35:02 06:39:32 17° 60° (ENE) 06:44:03 435.910
STRAND 1 12 Dec 06:39:25 06:44:08 38° 72° (ENE) 06:48:51 437.568
SEEDS 12 Dec 06:44:57 06:47:19 15° 93° (E) 06:49:41 437.485
CUTE-I 12 Dec 06:48:41 06:54:02 87° 102° (ESE) 06:59:21 437.470
XW-2D 12 Dec 06:49:35 06:53:18 47° 284° (WNW) 06:56:58 145.860 - 145.880
SRMSAT 12 Dec 06:53:39 06:56:19 13° 164° (SSE) 06:58:58 437.500
CUTE 1.7 + AOD 2 12 Dec 07:00:44 07:04:48 41° 99° (E) 07:08:49 437.475
KAITUO 1B 12 Dec 07:05:29 07:09:06 42° 285° (WNW) 07:12:40 145.475/437.950
XW-2B 12 Dec 07:05:37 07:09:00 30° 287° (WNW) 07:12:23 145.730 - 145.750
NUDT-PHONESAT 12 Dec 07:06:59 07:10:33 43° 285° (WNW) 07:14:05 437.300
AAUSAT CUBESAT 2 12 Dec 07:13:21 07:15:02 12° 93° (E) 07:16:43 437.432
CUBEBUG 2 12 Dec 07:18:39 07:22:38 38° 99° (E) 07:26:42 437.445
XW-2F 12 Dec 07:20:42 07:23:37 21° 288° (WNW) 07:26:32 145.980 - 146.000
UWE-3 12 Dec 07:24:49 07:28:20 24° 97° (E) 07:31:54 435.000/436.395/437.385
BEESAT 3 12 Dec 07:32:51 07:35:03 15° 251° (WSW) 07:37:14 437.485
XW-2C 12 Dec 07:34:01 07:36:02 14° 291° (WNW) 07:38:02 145.795 - 145.815
O/OREOS (USA 219) 12 Dec 07:48:22 07:49:29 11° 98° (E) 07:50:36 437.305
ZACube-1 12 Dec 07:56:10 07:59:57 28° 97° (E) 08:03:46 437.345
JUGNU 12 Dec 07:58:40 08:03:03 21° 186° (S) 08:07:28 437.505
AO-85 12 Dec 07:59:41 08:04:33 62° 61° (ENE) 08:09:42 145.980
NO-84 12 Dec 08:00:38 08:03:08 23° 319° (NW) 08:05:46 435.350 FM
BEESAT 2 12 Dec 08:04:48 08:08:09 26° 249° (WSW) 08:11:26 435.950
FO-29 12 Dec 08:15:51 08:23:24 89° 256° (WSW) 08:31:20 435.910
SEEDS 12 Dec 08:19:12 08:23:03 35° 287° (WNW) 08:26:53 437.485
STRAND 1 12 Dec 08:19:42 08:23:22 20° 265° (W) 08:27:03 437.568
Oscar 11 12 Dec 08:20:54 08:24:44 30° 97° (E) 08:28:33 .
HO-68 12 Dec 08:20:56 08:27:41 46° 291° (WNW) 08:34:23 435.675
XW-2A 12 Dec 08:25:45 08:29:08 59° 283° (WNW) 08:32:30 145.665 - 145.685
AO-73 12 Dec 08:31:27 08:35:48 68° 102° (ESE) 08:40:12 145.935
CUTE 1.7 + AOD 2 12 Dec 08:38:07 08:40:12 13° 292° (WNW) 08:42:17 437.475
SRMSAT 12 Dec 08:40:24 08:44:50 21° 173° (S) 08:49:16 437.500
AAUSAT CUBESAT 2 12 Dec 08:46:43 08:50:37 39° 286° (WNW) 08:54:28 437.432
CUBEBUG 2 12 Dec 08:56:37 08:58:54 14° 291° (WNW) 09:01:15 437.445
UWE-3 12 Dec 09:01:15 09:04:38 23° 289° (WNW) 09:08:05 435.000/436.395/437.385
O/OREOS (USA 219) 12 Dec 09:23:50 09:28:20 53° 291° (WNW) 09:32:50 437.305
PRISM 12 Dec 09:24:39 09:27:22 17° 69° (ENE) 09:30:06 437.425
Max Valier Satellite 12 Dec 09:25:38 09:28:16 18° 95° (E) 09:30:53 145.860
TIGRISAT 12 Dec 09:26:12 09:30:30 63° 76° (ENE) 09:34:44 435.000
UNISAT 6 12 Dec 09:28:39 09:33:00 76° 77° (ENE) 09:37:17 437.425
ZACube-1 12 Dec 09:32:50 09:36:00 20° 289° (WNW) 09:39:12 437.345
AO-85 12 Dec 09:42:11 09:44:33 13° 252° (WSW) 09:46:58 145.980
JUGNU 12 Dec 09:48:38 09:51:25 13° 195° (SSW) 09:54:12 437.505
Oscar 11 12 Dec 09:57:35 10:00:36 19° 290° (WNW) 10:03:37 .
EO-88 12 Dec 09:59:34 10:02:56 34° 98° (E) 10:06:17 145.990 - 145.960
FO-29 12 Dec 10:05:33 10:09:12 14° 272° (W) 10:12:55 435.910
DELFI C3 12 Dec 10:14:18 10:18:11 58° 284° (WNW) 10:22:01 145.870
AIST 2D 12 Dec 10:25:09 10:28:02 25° 73° (ENE) 10:30:56 435.315
SRMSAT 12 Dec 10:28:50 10:33:24 23° 184° (S) 10:37:59 437.500
LO-87 12 Dec 10:41:01 10:41:57 11° 94° (E) 10:42:53 145.935 - 145.965
EO-79 12 Dec 10:42:08 10:44:20 14° 68° (ENE) 10:46:32 145.935-145.965
PRISM 12 Dec 10:58:42 11:02:21 30° 262° (W) 11:06:02 437.425
Max Valier Satellite 12 Dec 10:59:06 11:01:57 21° 288° (WNW) 11:04:48 145.860
POLYITAN 1 12 Dec 11:02:59 11:06:25 25° 71° (ENE) 11:09:51 437.675
nSIGHT-1 12 Dec 11:04:36 11:06:50 18° 128° (SE) 11:09:05 .
QB50P2 12 Dec 11:27:38 11:31:46 59° 75° (ENE) 11:35:54 145.880/145.840
EO-88 12 Dec 11:35:00 11:36:11 11° 291° (WNW) 11:37:21 145.990 - 145.960
ISS 12 Dec 11:35:59 11:38:54 30° 130° (SE) 11:41:51 437.550
DUCHIFAT 1 12 Dec 11:37:17 11:41:18 50° 75° (ENE) 11:45:20 145.980
ESTCUBE 1 12 Dec 11:38:25 11:42:51 52° 100° (E) 11:47:15 437.505/2401.250
AIST 2D 12 Dec 11:59:27 12:01:10 13° 266° (W) 12:02:52 435.315
NANOSAT C BR1 12 Dec 12:02:01 12:06:10 65° 259° (W) 12:10:19 145.865
LO-87 12 Dec 12:12:15 12:15:23 30° 286° (WNW) 12:18:31 145.935 - 145.965
EO-79 12 Dec 12:15:50 12:19:43 37° 261° (W) 12:23:36 145.935-145.965
SRMSAT 12 Dec 12:18:28 12:21:58 16° 193° (SSW) 12:25:26 437.500
AO-91 12 Dec 12:19:08 12:22:45 20° 71° (ENE) 12:26:10 145.960
BUGSAT 1 12 Dec 12:28:32 12:32:23 42° 74° (ENE) 12:36:12 437.445
Oscar 19 12 Dec 12:33:08 12:37:31 29° 70° (ENE) 12:41:55 437.125/150
POLYITAN 1 12 Dec 12:39:00 12:42:06 20° 264° (W) 12:45:11 437.675
nSIGHT-1 12 Dec 12:40:00 12:42:52 29° 322° (NW) 12:45:44 .
SPROUT 12 Dec 12:48:30 12:52:45 76° 103° (ESE) 12:56:58 437.525
Gurwin Techsat 1B 12 Dec 12:53:41 12:58:26 34° 71° (ENE) 13:03:12 435.225
RS-15 12 Dec 13:09:44 13:17:13 19° 99° (E) 13:24:40 29.354- 29.394
ISS 12 Dec 13:12:53 13:15:24 20° 325° (NW) 13:17:56 437.550
ESTCUBE 1 12 Dec 13:17:19 13:19:08 12° 294° (WNW) 13:20:56 437.505/2401.250
VELOX 1 12 Dec 13:23:36 13:28:00 74° 284° (WNW) 13:32:21 145.980
YUBILEINY 12 Dec 13:48:29 13:55:48 28° 73° (ENE) 14:03:03 435.215
AO-7 12 Dec 13:49:48 13:56:24 27° 60° (ENE) 14:03:01 .
M-CUBED/EXP-1 PRIME 12 Dec 13:52:10 13:54:17 13° 61° (ENE) 13:56:25 437.505
AO-91 12 Dec 13:54:09 13:58:56 37° 261° (W) 14:03:22 145.960
BUGSAT 1 12 Dec 14:06:52 14:07:52 11° 267° (W) 14:08:51 437.445
Oscar 19 12 Dec 14:12:31 14:16:43 26° 263° (W) 14:20:59 437.125/150
50 SAT 12 Dec 14:12:54 14:16:04 79° 278° (W) 14:19:11 437.505
UKube-1 12 Dec 14:17:19 14:21:30 49° 101° (E) 14:25:38 .
DX 1 12 Dec 14:27:28 14:31:47 70° 285° (WNW) 14:36:05 434.975-435.025
Gurwin Techsat 1B 12 Dec 14:34:12 14:38:22 23° 264° (W) 14:42:34 435.225
NO-84 12 Dec 14:35:40 14:38:56 24° 42° (NE) 14:42:20 435.350 FM
BEESAT 12 Dec 14:56:45 14:59:57 18° 95° (E) 15:03:06 436.000
MOZHAYETS 4 12 Dec 14:57:20 15:01:17 28° 97° (E) 15:05:13
RS-15 12 Dec 15:15:41 15:28:00 88° 116° (ESE) 15:40:21 29.354- 29.394
SO-50 12 Dec 15:17:37 15:21:20 26° 111° (ESE) 15:25:04 436.795
ITAMSAT 1 12 Dec 15:17:58 15:23:07 65° 74° (ENE) 15:28:17 435.822/435.867
ITUPSAT 1 12 Dec 15:22:23 15:26:42 34° 98° (E) 15:31:00 437.325
M-CUBED/EXP-1 PRIME 12 Dec 15:24:06 15:28:05 47° 257° (WSW) 15:32:22 437.505
AO-7 12 Dec 15:40:27 15:48:34 59° 257° (WSW) 15:56:45 .
YUBILEINY 12 Dec 15:44:25 15:52:51 53° 270° (W) 16:01:14 435.215
DOVE 4 12 Dec 15:48:20 15:52:29 24° 70° (ENE) 15:56:35 437.250
UKube-1 12 Dec 15:55:34 15:57:01 12° 294° (WNW) 15:58:27 .
NO-84 12 Dec 16:12:35 16:16:14 33° 235° (SW) 16:20:01 435.350 FM
CUBESAT XI-V 12 Dec 16:13:38 16:18:08 43° 99° (E) 16:22:35 437.345
BEESAT 12 Dec 16:33:24 16:37:45 37° 288° (WNW) 16:42:06 436.000
MOZHAYETS 4 12 Dec 16:34:39 16:38:14 23° 290° (WNW) 16:41:49
SO-50 12 Dec 16:58:00 17:01:40 25° 306° (NW) 17:05:24 436.795
ITUPSAT 1 12 Dec 17:00:48 17:04:15 20° 292° (WNW) 17:07:42 437.325
HO-68 12 Dec 17:01:01 17:04:08 13° 58° (ENE) 17:07:14 435.675
ITAMSAT 1 12 Dec 17:01:15 17:02:55 11° 267° (W) 17:04:35 435.822/435.867
KKS-1 12 Dec 17:04:45 17:08:28 26° 97° (E) 17:12:10 437.445
LilacSat-2 12 Dec 17:08:50 17:11:54 24° 72° (ENE) 17:14:59 437.200
DOVE 4 12 Dec 17:25:05 17:29:53 35° 263° (W) 17:34:40 437.250
XW-2D 12 Dec 17:26:00 17:29:29 37° 74° (ENE) 17:33:01 145.860 - 145.880
RS-15 12 Dec 17:32:12 17:42:07 27° 319° (NW) 17:52:00 29.354- 29.394
KAITUO 1B 12 Dec 17:40:29 17:43:57 38° 75° (ENE) 17:47:27 145.475/437.950
NUDT-PHONESAT 12 Dec 17:41:08 17:44:31 36° 74° (ENE) 17:47:56 437.300
XW-2B 12 Dec 17:41:33 17:45:15 60° 76° (ENE) 17:48:59 145.730 - 145.750
CUTE 1.7 + AOD 2 12 Dec 17:49:53 17:52:37 17° 69° (ENE) 17:55:23 437.475
CUBESAT XI-V 12 Dec 17:52:22 17:55:04 15° 293° (WNW) 17:57:47 437.345
STARS 12 Dec 17:54:17 17:58:19 36° 99° (E) 18:02:19 437.465
XW-2F 12 Dec 17:55:43 17:59:27 89° 257° (WSW) 18:03:15 145.980 - 146.000
O/OREOS (USA 219) 12 Dec 18:01:46 18:02:59 11° 58° (ENE) 18:04:10 437.305
CUTE-I 12 Dec 18:05:51 18:11:13 89° 252° (WSW) 18:16:38 437.470
XW-2C 12 Dec 18:08:49 18:12:29 52° 260° (W) 18:16:12 145.795 - 145.815
CUBEBUG 2 12 Dec 18:13:20 18:16:15 18° 70° (ENE) 18:19:08 437.445
UWE-3 12 Dec 18:19:58 18:20:59 11° 67° (ENE) 18:22:01 435.000/436.395/437.385
KKS-1 12 Dec 18:41:27 18:44:50 22° 290° (WNW) 18:48:12 437.445
PCSat 12 Dec 18:43:19 18:48:24 44° 110° (ESE) 18:53:31 145.827
LilacSat-2 12 Dec 18:43:34 18:46:05 17° 265° (W) 18:48:37 437.200
HO-68 12 Dec 18:43:34 18:50:46 85° 74° (ENE) 18:58:00 435.675
ZACube-1 12 Dec 18:49:36 18:51:16 12° 68° (ENE) 18:52:55 437.345
XW-2A 12 Dec 18:53:00 18:55:21 18° 72° (ENE) 18:57:43 145.665 - 145.685
STRAND 1 12 Dec 18:55:11 18:58:41 19° 95° (E) 19:02:10 437.568
XW-2D 12 Dec 19:03:21 19:03:47 10° 267° (W) 19:04:12 145.860 - 145.880
SEEDS 12 Dec 19:05:26 19:09:37 85° 80° (E) 19:13:53 437.485
nSIGHT-1 12 Dec 19:09:56 19:12:51 31° 39° (NE) 19:15:45 .
Oscar 11 12 Dec 19:12:45 19:14:55 14° 68° (ENE) 19:17:05 .
AO-73 12 Dec 19:22:58 19:26:28 27° 72° (ENE) 19:29:57 145.935
CUTE 1.7 + AOD 2 12 Dec 19:24:24 19:28:09 31° 263° (W) 19:31:57 437.475
AAUSAT CUBESAT 2 12 Dec 19:31:27 19:35:35 69° 76° (ENE) 19:39:45 437.432
STARS 12 Dec 19:31:43 19:34:18 16° 292° (WNW) 19:36:52 437.465
FO-29 12 Dec 19:34:19 19:38:01 15° 89° (E) 19:41:28 435.910
O/OREOS (USA 219) 12 Dec 19:38:19 19:42:44 58° 253° (WSW) 19:47:06 437.305
BEESAT 3 12 Dec 19:40:21 19:42:46 16° 109° (ESE) 19:45:12 437.485
ISS 12 Dec 19:43:15 19:46:29 55° 42° (NE) 19:49:41 437.550
CUBEBUG 2 12 Dec 19:48:58 19:52:38 28° 263° (W) 19:56:16 437.445
UWE-3 12 Dec 19:52:57 19:57:00 47° 261° (W) 20:01:00 435.000/436.395/437.385
RS-15 12 Dec 19:59:07 20:01:07 10° 354° (N) 20:03:06 29.354- 29.394
ZACube-1 12 Dec 20:23:13 20:27:08 41° 261° (W) 20:31:03 437.345
XW-2A 12 Dec 20:25:47 20:27:55 16° 265° (W) 20:30:03 145.665 - 145.685
PCSat 12 Dec 20:27:50 20:31:56 22° 305° (NW) 20:36:04 145.827
STRAND 1 12 Dec 20:33:13 20:37:57 40° 288° (WNW) 20:42:40 437.568
HO-68 12 Dec 20:35:59 20:39:07 13° 268° (W) 20:42:16 435.675
Oscar 11 12 Dec 20:46:36 20:50:38 40° 261° (W) 20:54:42 .
nSIGHT-1 12 Dec 20:46:44 20:48:50 16° 233° (SW) 20:50:56 .
DELFI C3 12 Dec 20:54:39 20:58:21 38° 74° (ENE) 21:02:04 145.870
AO-73 12 Dec 20:59:54 21:02:39 17° 265° (W) 21:05:25 145.935
BEESAT 3 12 Dec 21:16:24 21:20:00 32° 303° (WNW) 21:23:36 437.485
FO-29 12 Dec 21:16:57 21:23:45 66° 287° (WNW) 21:29:43 435.910
TIGRISAT 12 Dec 21:22:40 21:25:42 18° 95° (E) 21:28:45 435.000
UNISAT 6 12 Dec 21:25:02 21:28:25 22° 96° (E) 21:31:49 437.425
Max Valier Satellite 12 Dec 21:32:14 21:35:50 81° 79° (ENE) 21:39:30 145.860
FALCONSAT 3 12 Dec 21:36:29 21:38:24 14° 147° (SSE) 21:40:19 435.103
BEESAT 2 12 Dec 21:50:34 21:54:28 53° 300° (WNW) 21:58:25 435.950
EO-88 12 Dec 22:05:31 22:09:01 49° 260° (W) 22:12:34 145.990 - 145.960
AO-85 12 Dec 22:10:30 22:14:14 51° 115° (ESE) 22:18:07 145.980
RS-15 12 Dec 22:13:15 22:21:06 19° 32° (NNE) 22:28:40 29.354- 29.394
DELFI C3 12 Dec 22:31:45 22:33:11 12° 267° (W) 22:34:37 145.870
ESTCUBE 1 12 Dec 22:33:44 22:37:31 27° 71° (ENE) 22:41:20 437.505/2401.250
LO-87 12 Dec 22:43:05 22:46:27 43° 75° (ENE) 22:49:50 145.935 - 145.965
PRISM 12 Dec 22:43:41 22:47:40 48° 100° (E) 22:51:35 437.425
TIGRISAT 12 Dec 22:58:34 23:02:21 30° 288° (WNW) 23:06:12 435.000
UNISAT 6 12 Dec 23:01:26 23:05:01 25° 288° (WNW) 23:08:39 437.425
FALCONSAT 3 12 Dec 23:13:27 23:17:04 59° 159° (SSE) 23:20:41 435.103
QB50P2 12 Dec 23:18:21 23:20:26 13° 94° (E) 23:22:32 145.880/145.840
AIST 2D 12 Dec 23:26:21 23:29:52 57° 100° (E) 23:33:20 435.315
DUCHIFAT 1 12 Dec 23:27:51 23:28:58 11° 93° (E) 23:30:06 145.980
SPROUT 12 Dec 23:37:22 23:41:06 31° 72° (ENE) 23:44:50 437.525
NANOSAT C BR1 12 Dec 23:50:51 23:54:24 26° 97° (E) 23:57:57 145.865
AO-85 12 Dec 23:53:46 23:54:58 11° 312° (NW) 23:56:13 145.980
EO-79 13 Dec 00:04:20 00:08:23 45° 100° (E) 00:12:25 145.935-145.965
ESTCUBE 1 13 Dec 00:10:48 00:14:14 21° 264° (W) 00:17:42 437.505/2401.250
VELOX 1 13 Dec 00:15:54 00:20:14 54° 74° (ENE) 00:24:35 145.980
PRISM 13 Dec 00:21:34 00:22:25 11° 294° (WNW) 00:23:16 437.425
RS-15 13 Dec 00:24:37 00:36:18 68° 59° (ENE) 00:47:20 29.354- 29.394
POLYITAN 1 13 Dec 00:26:36 00:30:50 89° 102° (ESE) 00:35:04 437.675
50 SAT 13 Dec 00:36:17 00:37:33 12° 70° (ENE) 00:38:50 437.505
Oscar 19 13 Dec 00:50:11 00:53:02 15° 93° (E) 00:55:52 437.125/150
QB50P2 13 Dec 00:52:24 00:56:18 37° 287° (WNW) 01:00:12 145.880/145.840
FALCONSAT 3 13 Dec 00:52:33 00:56:11 58° 354° (N) 00:59:49 435.103
DUCHIFAT 1 13 Dec 01:00:48 01:04:47 45° 286° (WNW) 01:08:47 145.980
UKube-1 13 Dec 01:07:42 01:11:09 24° 70° (ENE) 01:14:36 .
SPROUT 13 Dec 01:14:13 01:16:58 17° 265° (W) 01:19:44 437.525
Gurwin Techsat 1B 13 Dec 01:15:00 01:18:47 19° 95° (E) 01:22:31 435.225
DX 1 13 Dec 01:18:07 01:22:24 55° 75° (ENE) 01:26:41 434.975-435.025
NANOSAT C BR1 13 Dec 01:26:53 01:29:53 19° 290° (WNW) 01:32:55 145.865
SO-50 13 Dec 01:32:06 01:36:48 84° 60° (ENE) 01:41:33 436.795
EO-79 13 Dec 01:42:08 01:43:41 12° 293° (WNW) 01:45:13 145.935-145.965
AO-91 13 Dec 01:48:53 01:52:17 58° 101° (E) 01:55:34 145.960
BUGSAT 1 13 Dec 01:49:16 01:53:13 55° 285° (WNW) 01:57:12 437.445
MOZHAYETS 4 13 Dec 01:55:50 01:58:37 16° 68° (ENE) 02:01:26
VELOX 1 13 Dec 01:56:12 01:56:55 10° 267° (W) 01:57:37 145.980
BEESAT 13 Dec 02:00:01 02:02:12 13° 65° (ENE) 02:04:21 436.000
50 SAT 13 Dec 02:06:41 02:09:14 22° 263° (W) 02:11:47 437.505
ITUPSAT 1 13 Dec 02:25:07 02:28:56 24° 69° (ENE) 02:32:45 437.325
Oscar 19 13 Dec 02:27:31 02:32:33 52° 287° (WNW) 02:37:35 437.125/150
FALCONSAT 3 13 Dec 02:31:49 02:35:29 65° 10° (N) 02:39:07 435.103
RS-15 13 Dec 02:38:37 02:47:35 28° 257° (WSW) 02:56:18 29.354- 29.394
YUBILEINY 13 Dec 02:43:27 02:51:18 38° 87° (E) 02:59:09 435.215
UKube-1 13 Dec 02:43:35 02:47:01 23° 263° (W) 02:50:28 .
Gurwin Techsat 1B 13 Dec 02:53:51 02:58:48 41° 288° (WNW) 03:03:44 435.225
M-CUBED/EXP-1 PRIME 13 Dec 03:07:39 03:10:42 18° 98° (E) 03:13:36 437.505
CUBESAT XI-V 13 Dec 03:12:46 03:16:35 26° 70° (ENE) 03:20:26 437.345
MOZHAYETS 4 13 Dec 03:31:12 03:35:25 38° 261° (W) 03:39:40
BEESAT 13 Dec 03:34:49 03:39:26 53° 259° (W) 03:44:05 436.000
ITAMSAT 1 13 Dec 03:35:41 03:40:18 32° 98° (E) 03:44:53 435.822/435.867
PCSat 13 Dec 03:36:52 03:39:59 15° 51° (NE) 03:43:06 145.827
AO-7 13 Dec 03:46:49 03:55:09 65° 104° (ESE) 04:03:25 .
KKS-1 13 Dec 03:59:29 04:02:03 15° 67° (ENE) 04:04:35 437.445
ITUPSAT 1 13 Dec 04:02:34 04:06:35 27° 263° (W) 04:10:37 437.325
JUGNU 13 Dec 04:07:39 04:11:07 16° 167° (SSE) 04:14:36 437.505
FALCONSAT 3 13 Dec 04:11:00 04:14:30 43° 204° (SSW) 04:18:00 435.103
YUBILEINY 13 Dec 04:39:50 04:47:53 40° 283° (WNW) 04:56:02 435.215
M-CUBED/EXP-1 PRIME 13 Dec 04:41:04 04:45:05 32° 293° (WNW) 04:48:52 437.505
STARS 13 Dec 04:47:07 04:50:15 19° 69° (ENE) 04:53:24 437.465
CUBESAT XI-V 13 Dec 04:50:03 04:53:49 24° 264° (W) 04:57:37 437.345
ITAMSAT 1 13 Dec 05:15:26 05:19:32 24° 292° (WNW) 05:23:36 435.822/435.867
PCSat 13 Dec 05:18:27 05:23:50 66° 247° (WSW) 05:29:10 145.827
DOVE 4 13 Dec 05:28:34 05:33:03 82° 281° (W) 05:37:16 437.250
XW-2F 13 Dec 05:33:36 05:35:20 13° 94° (E) 05:37:04 145.980 - 146.000
KKS-1 13 Dec 05:34:00 05:38:12 40° 261° (W) 05:42:25 437.445
BEESAT 3 13 Dec 05:36:47 05:40:17 31° 57° (ENE) 05:43:44 437.485
AO-7 13 Dec 05:40:48 05:47:12 25° 300° (WNW) 05:53:37 .
XW-2C 13 Dec 05:46:03 05:49:00 21° 96° (E) 05:51:56 145.795 - 145.815
NO-84 13 Dec 05:49:26 05:49:59 10° 121° (ESE) 05:50:33 435.350 FM
